Lapse_Rate
4.8 4.9 4.7 4.6 4.7 4.6 4.8 5.4 5.9 6.2 6.6 6.4 6.4 6.2 6.3 6.4 6.5 6.6 6.8 6.8 6.8 6.7 6.5 6.4 6.4 6.4 6.2 5.8 5.4 5.2 4.5 4.3 4.7 5.2 6.3 6.5 6.9 7.3 7.2 7.6 7.5 7.7 7.8 7.9 8.0
5.0 4.8 4.6 4.6 4.6 4.8 5.1 5.5 6.0 6.1 6.5 6.5 6.1 6.1 6.2 6.3 6.3 6.5 6.5 6.9 6.8 6.6 6.6 6.5 6.5 6.4 6.4 6.2 5.6 5.4 4.8 4.4 4.6 5.2 6.2 6.5 6.6 7.3 7.3 7.4 7.4 7.7 7.8 8.1 8.3
5.1 4.9 4.8 4.6 4.6 4.9 5.2 5.6 5.9 6.1 6.3 6.1 6.0 6.0 6.2 6.3 6.1 6.2 6.4 6.8 6.8 6.5 6.5 6.5 6.5 6.5 6.4 6.6 6.3 5.7 5.1 5.0 5.1 5.2 6.0 6.4 6.5 7.0 7.2 7.4 7.7 7.9 7.9 8.3 8.4
5.3 5.0 4.9 4.7 4.8 5.0 5.3 5.9 5.8 5.9 6.1 6.0 6.0 5.9 5.9 5.7 5.8 6.1 6.2 6.6 6.7 6.5 6.7 6.8 6.5 6.6 6.5 6.3 6.4 6.2 5.7 5.5 5.9 5.7 5.9 6.3 6.5 6.6 7.0 7.4 7.8 7.9 7.8 7.9 8.2
5.4 5.2 5.1 5.0 5.0 5.3 5.6 6.0 5.9 5.9 6.0 6.0 6.1 5.8 5.7 5.7 5.9 5.8 6.4 6.3 6.7 6.7 6.5 6.5 6.4 6.5 6.5 6.5 6.4 6.3 6.2 6.2 6.5 6.2 6.1 6.3 6.4 6.6 6.8 7.3 7.9 7.7 7.6 7.7 7.8
5.6 5.4 5.3 5.3 5.3 5.5 5.9 6.1 6.0 6.1 6.1 6.1 6.0 5.8 5.8 5.8 5.4 5.7 6.2 5.9 6.5 6.7 6.4 6.3 6.3 6.2 6.5 6.7 6.5 6.4 6.1 6.6 6.9 6.8 6.4 6.4 6.7 6.7 6.9 7.2 7.7 7.8 7.2 7.5 7.8
5.7 5.5 5.5 5.5 5.5 5.6 5.8 6.0 6.0 6.3 6.4 6.2 6.4 6.0 5.8 5.9 5.8 6.1 5.9 5.8 6.2 6.4 6.5 6.2 6.3 6.3 6.2 6.6 6.6 6.5 6.4 6.4 7.0 7.2 6.5 6.2 6.7 6.7 6.9 7.4 7.4 7.1 7.0 7.2 7.6
5.9 5.8 5.7 5.7 5.9 5.8 5.8 6.0 6.2 6.6 6.6 6.7 6.6 6.4 6.2 6.1 5.9 6.3 6.1 5.8 6.0 6.4 6.1 6.3 6.2 6.2 6.2 6.6 6.6 6.5 6.7 6.5 7.1 7.1 6.5 6.5 6.5 6.8 6.9 7.5 7.3 7.1 7.2 7.1 6.7
6.1 6.0 5.9 5.8 6.0 6.0 5.9 6.1 6.4 6.7 6.8 6.9 6.9 6.6 6.4 6.4 6.2 6.1 6.3 6.1 5.9 6.0 6.1 6.2 6.5 6.5 6.3 6.5 6.7 6.5 6.8 6.8 7.0 7.0 6.7 6.4 6.7 6.6 7.0 7.3 7.2 7.4 7.2 7.0 6.6
6.3 6.2 6.2 6.1 6.1 6.2 6.2 6.2 6.4 6.6 6.8 6.8 6.6 6.8 6.5 6.4 6.4 6.5 6.2 6.1 6.2 6.2 6.1 6.2 6.3 6.5 6.5 6.5 6.6 6.5 6.5 6.8 7.0 7.3 6.9 6.7 6.8 6.9 7.0 7.3 7.4 7.2 7.0 6.9 6.3
6.5 6.4 6.3 6.3 6.3 6.2 6.2 6.4 6.5 6.7 6.7 6.8 6.8 6.8 6.6 6.4 6.4 6.6 6.5 6.4 6.1 6.2 6.2 6.2 6.3 6.5 6.7 6.9 6.9 6.5 7.0 7.0 7.0 7.1 6.9 6.8 6.9 7.1 7.1 7.2 7.2 7.1 6.8 6.9 6.7
6.5 6.5 6.5 6.4 6.3 6.4 6.3 6.3 6.4 6.6 6.7 6.8 6.9 7.0 7.0 6.6 6.3 6.5 6.6 6.5 6.3 6.3 6.1 6.1 6.2 6.4 6.4 6.5 6.8 6.6 6.9 7.1 7.2 7.0 6.9 7.0 7.2 7.2 7.1 7.0 7.1 6.9 6.2 6.9 7.1
6.6 6.6 6.6 6.6 6.4 6.4 6.5 6.5 6.3 6.5 6.7 6.9 7.1 7.2 7.1 7.0 6.6 6.5 6.7 6.9 6.8 6.5 6.4 6.2 5.9 6.2 6.4 6.7 6.7 6.9 6.9 6.9 7.3 7.2 7.2 7.5 7.3 7.4 7.3 7.2 7.0 6.9 6.9 7.2 7.0
6.7 6.6 6.6 6.7 6.4 6.4 6.6 6.6 6.3 6.5 6.5 6.9 7.1 7.0 7.0 7.2 7.0 6.7 6.8 6.8 7.0 7.1 7.0 6.6 6.4 6.1 6.5 6.5 6.7 7.2 7.5 7.7 7.5 7.4 7.2 7.5 6.8 7.5 7.4 7.3 7.4 7.5 7.8 7.5 7.2
6.9 6.7 6.5 6.7 6.6 6.5 6.5 6.5 6.3 6.2 4.3 6.8 7.0 6.8 7.0 7.3 7.2 7.2 6.9 7.0 7.2 7.5 7.7 7.6 7.3 6.8 6.8 7.0 6.9 7.4 7.8 8.0 7.8 7.9 7.6 7.5 7.8 7.7 7.5 7.3 7.3 7.5 7.6 7.4 7.4
7.1 6.9 6.7 6.6 6.6 6.6 6.4 6.4 6.3 6.2 6.2 6.6 6.7 6.8 7.0 7.4 7.6 7.2 7.2 7.4 7.7 7.8 7.8 7.9 7.8 7.5 7.4 7.5 7.5 7.8 8.0 8.3 8.0 8.0 7.2 7.7 7.5 8.0 7.7 7.6 7.7 7.7 7.7 7.6 7.4
7.0 7.0 6.8 6.8 6.5 6.5 6.4 6.3 6.5 6.4 6.3 6.5 6.6 6.6 6.9 7.1 7.4 7.3 7.2 7.4 7.7 7.9 8.0 8.0 7.9 7.7 7.7 7.9 7.9 8.3 8.2 7.4 7.1 6.2 5.8 7.1 7.7 7.8 7.8 7.8 8.2 8.0 7.8 7.4 7.3
7.1 7.0 7.0 6.8 6.8 6.5 6.5 6.4 6.5 6.5 6.2 6.3 6.5 6.6 6.7 6.9 7.2 7.3 7.3 7.1 7.3 7.6 7.6 8.0 8.0 7.7 7.7 8.0 8.3 8.4 8.5 7.9 6.9 5.8 5.8 7.7 7.4 8.0 7.9 8.2 8.1 8.0 7.9 7.3 6.9
7.2 7.1 7.1 7.0 6.9 6.8 6.6 6.5 6.6 6.5 6.2 6.1 6.4 6.6 6.6 6.6 6.8 7.2 7.4 7.3 7.3 7.3 7.4 7.6 7.6 7.5 7.8 7.9 8.2 8.1 8.3 8.4 7.9 7.2 7.1 7.4 7.4 7.9 8.1 8.1 8.2 8.1 7.8 7.1 6.7
7.4 7.3 7.1 7.0 7.0 6.9 6.8 6.6 6.7 6.5 6.4 6.3 6.2 6.5 6.8 6.7 6.6 6.8 6.9 6.9 7.0 7.2 7.2 7.2 7.5 7.7 7.5 7.9 8.1 8.1 8.3 8.3 8.3 6.7 6.7 6.4 7.0 7.2 7.8 8.0 7.8 7.5 7.3 6.9 6.4
7.4 7.5 7.3 7.1 7.0 7.0 6.9 6.8 6.8 6.7 6.5 6.4 6.4 6.2 6.5 6.8 6.8 6.8 6.7 6.8 6.9 7.2 7.1 7.2 7.4 7.8 7.7 7.8 7.8 7.9 7.8 8.0 7.8 7.6 5.7 5.4 6.6 6.8 7.3 7.3 7.2 7.2 6.5 6.1 6.0
7.3 7.4 7.5 7.3 7.1 7.1 7.0 6.9 6.8 6.8 6.7 6.4 6.2 6.3 6.1 6.4 6.7 6.8 6.8 6.7 6.8 6.9 6.9 7.0 7.3 7.7 7.7 7.4 7.3 7.5 7.8 7.7 7.4 7.2 7.0 6.6 6.4 6.7 6.9 7.1 6.7 6.4 6.2 6.1 6.0
7.3 7.3 7.6 7.5 7.2 7.2 7.2 7.0 6.9 6.9 6.8 6.7 6.5 6.3 6.3 6.2 6.4 6.6 6.6 6.7 6.8 6.9 7.0 7.0 7.1 7.3 7.5 7.4 7.4 7.4 7.4 7.4 7.4 7.0 7.0 6.2 6.3 6.3 6.3 6.4 6.4 6.4 6.3 6.1 6.0
7.0 7.1 7.4 7.6 7.5 7.2 7.1 7.3 7.1 7.0 6.8 6.8 6.7 6.7 6.5 6.3 6.2 6.4 6.6 6.7 6.6 6.7 6.7 6.8 6.9 7.0 7.0 7.1 7.0 7.0 7.0 7.1 6.7 6.8 6.7 6.7 6.4 6.1 6.1 6.2 6.2 6.3 6.3 6.3 6.2
6.7 6.9 7.1 7.3 7.5 7.3 7.0 7.0 7.2 7.0 7.1 6.9 6.9 6.8 6.7 6.6 6.5 6.4 6.4 6.6 6.7 6.7 6.7 6.7 6.7 6.8 6.7 6.7 6.8 6.7 6.6 6.6 6.6 6.6 6.5 6.6 6.4 6.2 6.1 6.1 6.1 6.0 5.9 5.7 5.5
6.7 6.7 6.8 6.9 7.1 7.1 7.2 7.2 7.2 7.1 7.1 7.1 6.9 6.7 6.7 6.7 6.6 6.6 6.4 6.4 6.5 6.5 6.5 6.6 6.7 6.8 6.9 6.8 6.5 6.6 6.5 6.3 6.3 6.3 6.3 6.3 6.2 6.2 6.1 6.0 5.9 5.8 5.7 5.4 5.1
6.7 6.7 6.3 6.7 6.8 7.1 7.3 7.4 7.0 7.0 7.0 7.2 7.1 6.9 6.8 6.6 6.6 6.6 6.6 6.5 6.4 6.5 6.5 6.4 6.5 6.5 6.8 6.7 6.6 7.1 7.3 7.0 6.9 6.9 6.6 6.5 6.3 6.2 6.1 6.0 5.9 5.5 5.3 5.2 5.0
Wind_Speed
13 13 14 15 15 14 14 13 12 10 8 8 9 12 13 14 11 1 2 5 5 10 6 3 3 1 2 3 3 4 3 3 3 6 3 2 3 3 2 6 2 1 2 3 16
13 13 14 15 15 15 14 12 12 11 10 11 11 11 12 11 2 3 7 10 6 6 3 4 3 2 2 3 3 3 4 5 3 2 3 3 2 6 4 4 1 3 4 14 17
14 14 14 15 16 14 13 12 11 11 10 9 10 12 11 7 3 2 11 10 6 4 4 2 4 2 4 4 3 4 5 4 2 2 5 2 1 4 5 3 5 7 14 16 15
15 15 15 15 16 15 14 12 10 9 10 11 11 11 9 2 4 1 10 11 6 4 3 4 4 1 4 6 5 4 5 3 1 4 5 4 6 4 1 3 3 9 17 18 15
15 16 16 15 15 16 15 14 12 10 10 9 11 14 4 4 3 2 7 8 5 3 4 3 3 3 4 5 4 3 5 8 1 6 4 4 3 4 5 3 5 15 17 18 14
14 15 16 16 15 17 18 16 15 12 11 11 8 7 1 6 1 2 5 4 3 2 1 4 5 3 3 3 5 7 2 6 2 4 5 4 3 3 5 2 9 15 17 11 8
14 14 15 16 16 15 18 19 18 15 11 9 4 2 2 4 2 2 3 2 3 2 2 1 2 2 3 3 3 4 6 1 5 3 4 2 2 5 2 4 12 14 11 10 6
15 14 15 15 16 16 18 21 20 18 12 6 2 1 3 1 4 4 2 1 3 2 2 2 2 4 2 1 2 2 4 3 5 8 5 3 6 5 5 8 9 10 11 11 6
17 15 16 16 16 17 19 22 18 5 2 3 2 2 6 2 2 3 4 2 1 2 3 1 2 2 2 2 3 1 3 4 6 9 6 5 5 4 8 5 7 8 8 9 6
19 18 17 16 16 18 22 18 7 3 5 2 1 2 2 4 2 3 1 3 2 1 3 3 3 2 2 2 4 4 2 3 3 5 5 4 7 2 6 7 8 9 6 6 7
20 19 18 15 15 16 10 3 5 4 4 2 6 3 4 1 4 3 1 3 5 1 2 1 2 4 5 4 2 3 2 5 4 2 5 6 5 3 3 4 6 6 6 8 5
22 20 18 15 15 11 2 4 2 3 5 1 4 4 4 4 1 2 5 1 3 5 6 4 3 6 4 5 4 5 2 4 1 1 4 4 3 1 3 4 4 5 4 7 6
23 20 18 16 13 4 3 3 1 2 2 6 3 3 4 4 2 5 9 3 3 7 6 3 3 6 2 4 5 2 3 3 4 3 4 4 2 2 1 3 4 7 7 4 6
23 20 17 19 3 1 2 1 2 1 4 6 4 2 1 1 1 3 8 5 3 4 5 3 3 5 4 4 3 3 4 4 3 3 4 2 3 3 3 3 3 5 2 4 5
22 19 15 10 1 2 1 1 1 3 5 5 8 1 5 3 3 1 2 2 3 3 3 2 2 5 3 4 6 6 2 5 3 4 4 5 5 5 2 5 4 4 6 5 5
24 18 11 3 2 2 2 3 3 6 3 5 4 6 5 3 4 5 3 5 1 3 2 1 2 2 2 2 3 2 2 5 3 3 3 1 4 4 3 3 2 3 4 6 5
26 13 3 2 1 2 2 3 5 5 2 5 3 5 3 4 5 5 4 6 4 5 6 2 2 1 1 1 2 2 4 3 3 4 4 4 3 5 3 3 3 5 6 6 8
26 5 3 2 1 2 3 5 5 3 4 2 2 3 3 5 2 7 3 6 4 3 3 4 5 4 4 2 1 3 3 5 3 3 3 2 4 5 3 3 4 6 5 6 7
17 2 1 2 2 2 4 3 5 5 1 3 2 3 3 4 2 3 3 1 2 1 3 3 3 2 3 2 2 2 1 3 6 3 3 2 4 6 6 4 4 6 7 7 5
3 2 1 3 2 4 4 4 3 3 1 1 1 1 1 3 4 5 4 1 3 1 2 1 3 1 2 1 2 2 3 3 3 3 3 4 4 4 4 4 3 4 6 4 4
2 3 2 2 2 4 2 5 4 4 3 2 2 2 2 1 2 1 2 1 1 4 0 1 3 4 2 4 2 4 3 5 3 3 4 3 5 5 4 4 3 4 3 1 2
3 2 2 2 3 1 1 3 2 3 1 3 2 3 4 3 1 1 2 4 3 1 0 1 2 2 1 1 2 1 1 2 4 3 1 2 4 3 1 1 3 6 5 4 4
3 3 2 3 1 2 3 2 2 4 4 4 5 5 3 3 1 2 2 1 1 2 2 1 2 2 5 3 1 1 2 3 2 2 3 3 4 2 4 6 6 7 7 6 7
3 3 3 3 1 4 3 4 3 3 3 3 3 3 3 3 3 3 2 1 1 1 3 2 2 4 5 2 1 2 3 1 2 2 4 4 4 1 4 6 6 8 8 8 7
1 4 2 3 3 4 4 3 4 4 3 3 2 6 6 4 3 4 2 1 1 3 2 2 2 2 4 4 2 3 4 4 4 3 3 2 7 5 5 6 6 6 7 8 8
2 1 2 3 1 5 5 5 7 3 8 5 5 5 6 5 6 5 5 4 3 1 2 1 2 3 2 2 0 4 5 5 4 3 2 5 2 2 4 6 7 7 8 7 6
2 2 3 3 1 4 5 7 7 6 6 5 8 5 4 7 4 2 4 3 2 2 1 1 2 2 3 4 7 6 5 5 4 3 5 5 6 5 4 7 6 6 7 7 6
Wind_Direction
338 337 336 339 341 343 345 345 344 343 333 330 336 340 337 336 332 19 25 280 282 335 32 116 53 105 109 155 137 133 75 186 201 182 216 324 157 331 89 118 97 71 191 174 143
337 336 336 338 344 347 343 342 339 337 338 335 336 337 332 336 331 8 320 341 358 3 63 162 157 198 162 201 185 125 142 209 218 281 251 298 275 167 136 129 93 115 75 128 148
339 337 338 340 343 341 338 337 336 338 339 339 340 336 323 326 355 357 338 0 358 106 80 90 109 154 191 194 180 178 173 214 312 291 1 340 275 315 143 235 199 176 149 148 162
336 335 336 338 336 335 334 333 324 325 325 332 335 332 329 358 346 313 341 342 1 121 81 96 99 191 176 187 207 142 224 226 335 11 342 329 311 299 170 202 289 155 159 158 162
330 330 332 333 332 329 326 326 321 309 304 312 327 352 356 5 290 28 3 349 45 19 121 107 111 216 194 175 134 151 193 252 309 320 328 284 301 247 234 282 143 137 161 169 160
330 326 329 328 328 323 321 322 316 306 300 301 323 340 35 327 341 69 11 6 40 58 94 140 203 208 135 204 170 181 160 262 79 331 307 285 293 146 232 200 135 151 169 162 159
331 328 325 326 322 318 316 314 307 298 291 289 302 105 95 255 13 30 38 315 348 114 146 236 258 148 141 149 271 164 175 326 273 146 288 286 297 219 194 180 150 171 165 154 158
334 329 324 322 318 316 311 304 298 297 289 274 175 101 241 130 88 47 11 108 18 10 91 287 233 120 60 341 243 102 86 148 274 150 269 161 274 241 165 160 159 155 167 177 185
340 334 329 321 319 317 313 306 301 308 256 128 107 116 297 145 39 72 22 34 45 10 11 160 352 67 27 148 108 282 173 187 304 185 190 178 259 212 173 160 161 163 157 165 162
343 337 332 325 323 323 319 306 291 106 78 123 91 47 321 332 133 93 23 10 92 160 51 37 26 81 95 84 191 167 230 232 227 201 150 196 268 236 169 163 176 173 177 156 149
345 336 332 327 325 329 340 15 16 346 38 192 258 230 289 51 98 48 106 10 2 37 81 88 238 223 220 196 265 169 205 147 245 220 133 202 230 235 153 116 161 165 199 189 152
344 337 332 328 327 330 39 96 165 178 317 277 247 273 252 188 133 148 149 21 53 67 21 16 290 264 205 220 202 197 208 210 245 160 134 164 86 109 167 208 187 201 231 206 161
346 337 333 327 325 34 61 141 271 177 81 303 259 249 249 157 257 196 162 215 203 154 168 188 274 139 302 254 177 143 199 226 166 129 55 119 24 86 29 142 203 205 195 172 158
345 340 336 329 59 283 37 309 303 302 65 295 333 332 25 165 317 152 201 201 248 228 184 173 156 201 257 30 22 343 202 215 208 108 141 4 232 286 183 205 212 225 106 120 126
341 340 342 17 203 65 230 27 50 52 40 285 299 295 312 69 283 203 187 175 293 318 143 253 92 128 149 198 158 245 197 166 110 105 99 352 73 247 22 243 244 230 203 201 191
339 334 343 355 36 352 25 65 48 42 273 333 300 351 14 15 357 315 29 30 184 273 4 107 117 118 211 275 228 136 114 61 60 83 31 317 135 285 174 242 286 244 194 185 173
338 329 2 96 298 356 29 41 36 104 304 295 317 15 305 320 356 23 20 15 46 25 4 8 157 127 67 175 201 191 56 43 11 6 211 315 63 234 295 291 261 272 208 149 148
335 331 17 44 40 73 47 47 73 232 247 300 310 316 21 351 11 360 49 20 19 58 24 29 340 2 347 50 242 78 134 147 121 187 241 316 232 241 228 296 284 257 212 150 137
334 332 46 340 52 56 69 47 210 199 197 301 309 65 331 352 3 40 28 257 233 9 103 19 301 347 40 349 24 219 21 133 103 6 72 249 291 324 350 34 47 92 125 147 147
350 345 345 334 85 69 73 243 208 200 191 75 285 186 300 307 30 21 6 313 342 201 195 205 338 11 269 173 43 45 147 60 4 130 232 307 289 234 326 332 18 84 87 86 99
11 6 308 21 51 60 168 234 243 226 159 185 234 260 247 266 136 321 302 282 313 326 284 293 140 301 7 29 66 1 20 47 120 133 157 159 257 206 234 286 272 87 99 118 109
351 338 315 340 43 64 178 209 227 216 181 214 203 230 228 231 299 278 236 208 198 138 189 294 152 280 68 111 173 183 216 154 118 238 125 151 272 9 82 35 136 105 101 116 143
330 265 319 97 222 275 262 270 240 193 223 195 209 200 189 231 257 242 256 166 110 147 161 177 335 23 351 5 27 241 175 136 102 53 198 148 238 84 73 66 57 88 65 64 67
328 323 322 47 124 162 207 224 232 223 259 200 222 139 164 233 230 249 258 280 213 210 153 113 124 171 196 226 133 233 195 191 167 134 181 213 163 147 76 91 66 65 74 74 69
203 253 207 256 253 177 162 187 191 218 217 211 243 228 181 193 208 222 231 286 249 339 77 105 230 130 258 256 251 248 219 194 189 183 175 216 169 195 164 134 98 82 75 73 65
246 229 348 281 225 162 179 222 209 206 157 228 216 207 196 206 192 199 175 201 194 68 121 340 230 192 252 155 28 256 218 192 210 197 151 137 204 138 98 95 81 97 102 96 94
269 284 127 252 232 142 213 206 216 167 216 183 190 150 211 233 194 103 94 92 118 158 148 83 122 56 282 332 319 301 221 184 168 180 149 166 219 150 118 125 138 135 133 138 140